Flag for Germany Weather past 2 weeks in Bretten, Baden-Württemberg, Germany

Now
63 °F

Passing clouds.


Feels Like: 63 °F
Forecast: 41 / 67 °F
Wind: 9 mph from Southeast

Location: Baden Wurttemberg - Neuostheim


UV Index: 3 (Moderate)

Visibility: N/A


Pressure: 29.71 "Hg

Humidity: 56%

Dew point: 46 °F

Location of BrettenLocation

Historic Weather in Bretten

°F

Bretten temperature yesterday

Maximum temperature yesterday: 66 °F (at 4:20 PM)
Minimum temperature yesterday: 41 °F (at 7:20 AM)
Average temperature yesterday: 56 °F

Past Weeks' High & Low Weather Summary

 TemperatureHumidityPressure
High72 °F (Apr 7, 4:20 PM)100% (Apr 6, 7:50 AM)30.42 "Hg (Apr 6, 7:50 AM)
Low34 °F (Apr 17, 6:50 AM)23% (Apr 17, 6:50 PM)29.71 "Hg (Apr 20, 7:50 AM)
Average56 °F54%30.10 "Hg
* Reported Apr 5 9:20 AM — Apr 20 9:50 AM, Bretten, Weather by CustomWeather, © 2014

Note: Actual official high and low records may vary slightly from our data, if they occured in-between our weather recording intervals... More about our weather records

Advertising

Historic Weather Conditions — Data for Previous 24 hours

 ConditionsComfort  
Time TempWeatherWind HumidityBarometerVisibility
9:50 AM
Apr 20
63 °FPassing clouds.6 mph56%29.71 "HgN/A
9:20 AM59 °FPassing clouds.7 mph63%29.71 "HgN/A
8:50 AM57 °FSunny.2 mph72%29.71 "Hg10 mi
8:20 AM55 °FSunny.5 mph72%29.74 "Hg10 mi
7:50 AM54 °FSunny.3 mph77%29.71 "Hg10 mi
7:50 PM
Apr 19
63 °FSunny.9 mph52%29.80 "Hg10 mi
7:20 PM63 °FPassing clouds.9 mph52%29.80 "HgN/A
6:50 PM64 °FSunny.12 mph49%29.80 "Hg10 mi
6:20 PM64 °FPassing clouds.9 mph46%29.80 "HgN/A
5:50 PM66 °FSunny.14 mph43%29.80 "Hg10 mi
5:20 PM64 °FSunny.13 mph46%29.80 "Hg10 mi
4:50 PM66 °FSunny.12 mph40%29.80 "Hg10 mi
4:20 PM66 °FPassing clouds.9 mph40%29.80 "HgN/A
3:50 PM64 °FSunny.9 mph40%29.83 "Hg10 mi
3:20 PM63 °FPassing clouds.9 mph45%29.83 "HgN/A
2:50 PM63 °FPassing clouds.12 mph42%29.86 "HgN/A
2:20 PM61 °FPassing clouds.13 mph45%29.89 "HgN/A
1:50 PM61 °FPassing clouds.13 mph45%29.89 "HgN/A
1:20 PM57 °FPassing clouds.14 mph48%29.89 "HgN/A
12:50 PM57 °FPassing clouds.15 mph48%29.92 "HgN/A
12:20 PM54 °FPassing clouds.13 mph54%29.92 "HgN/A
11:50 AM52 °FPassing clouds.9 mph58%29.95 "HgN/A
11:20 AM50 °FScattered clouds.10 mph67%29.95 "HgN/A
10:50 AM46 °FPassing clouds.12 mph71%29.95 "HgN/A
10:20 AM46 °FSunny.10 mph71%29.98 "Hg10 mi
Weather by CustomWeather, © 2014

See weather overview